Weather History for Naples, FL

Change the Weather History Date:

Tuesday, January 24, 2012

  Actual Average Record
Temperature  
Mean Temperature 71 °F 64 °F  
Max Temperature 81 °F 75 °F 87 °F (1975)
Min Temperature 61 °F 54 °F 33 °F (2003)
Degree Days  
Heating Degree Days 0 3  
Month to date heating degree days 72 85  
Since 1 July heating degree days 97 163  
Cooling Degree Days 6 3  
Month to date cooling degree days 41 72  
Year to date cooling degree days 41 72  
Growing Degree Days 20 (Base 50)    
Moisture  
Dew Point 63 °F    
Average Humidity 76    
Maximum Humidity 100    
Minimum Humidity 51    
Precipitation  
Precipitation 0.00 in 0.07 in 1.64 in (1958)
Month to date precipitation 0.02 1.34  
Year to date precipitation 0.02 1.34  
Snow  
Snow 0.00 in - - ()
Month to date snowfall 0.0  
Since 1 July snowfall 0.0  
Snow Depth 0.00 in    
Sea Level Pressure  
Sea Level Pressure 30.13 in    
Wind  
Wind Speed 5 mph (ENE)    
Max Wind Speed 14 mph    
Max Gust Speed 18 mph    
Visibility 9 miles    
Events      
T = Trace of Precipitation, MM = Missing Value Source: NWS Daily Summary

Daily Weather History Graph

Daily Weather History Graph

Search for Another Location

Airport:

Trip Planner

Search our weather history database for the weather conditions in past years. The results will help you decide how hot, cold, wet, or windy it might be!

Date:

Astronomy

Jan. 24, 2012 Rise Set
Actual Time 7:14 AM EST 6:03 PM EST
Civil Twilight 6:50 AM EST 6:28 PM EST
Nautical Twilight 6:22 AM EST 6:56 PM EST
Astronomical Twilight 5:54 AM EST 7:23 PM EST
Moon 7:55 AM EST (1/24) 7:38 PM EST (1/24)
Length of Visible Light 11h 38m
Length of Day
10h 49m
New Moon, 2% of the Moon is Illuminated
Jan 24
New Moon
Jan 30
First Quarter
Feb 7
Full
Feb 14
Last Quarter
Feb 21
New

Hourly Weather History & Observations

Time (EST) Temp. Heat Index Dew Point Humidity Pressure Visibility Wind Dir Wind Speed Gust Speed Precip Events Conditions
12:53 AM 64.0 °F - 61.0 °F 90% 30.11 in 10.0 mi Calm Calm - N/A   Clear
1:53 AM 63.0 °F - 61.0 °F 93% 30.11 in 10.0 mi NE 3.5 mph - N/A   Clear
2:53 AM 63.0 °F - 61.0 °F 93% 30.10 in 9.0 mi Calm Calm - N/A   Clear
3:53 AM 62.1 °F - 60.1 °F 93% 30.11 in 8.0 mi Calm Calm - N/A   Clear
4:53 AM 61.0 °F - 60.1 °F 97% 30.12 in 7.0 mi NE 3.5 mph - N/A   Clear
5:53 AM 60.8 °F - 60.8 °F 100% 30.13 in 7.0 mi NE 4.6 mph - N/A   Clear
6:53 AM 61.0 °F - 60.1 °F 97% 30.13 in 6.0 mi NE 3.5 mph - N/A   Clear
7:53 AM 63.0 °F - 61.0 °F 93% 30.13 in 4.0 mi ENE 6.9 mph - N/A   Clear
8:53 AM 68.0 °F - 64.4 °F 88% 30.15 in 10.0 mi East 8.1 mph - N/A   Clear
9:53 AM 73.9 °F - 66.0 °F 76% 30.17 in 10.0 mi East 6.9 mph - N/A   Clear
10:53 AM 79.0 °F - 64.9 °F 62% 30.17 in 10.0 mi ESE 11.5 mph - N/A   Scattered Clouds
11:53 AM 79.0 °F - 62.1 °F 56% 30.15 in 10.0 mi SSE 12.7 mph - N/A   Scattered Clouds
12:53 PM 79.0 °F - 61.0 °F 54% 30.11 in 10.0 mi Variable 6.9 mph - N/A   Scattered Clouds
1:53 PM 80.1 °F 80.9 °F 60.1 °F 50% 30.09 in 10.0 mi Variable 3.5 mph - N/A   Partly Cloudy
2:53 PM 75.9 °F - 64.9 °F 69% 30.09 in 10.0 mi WNW 6.9 mph - N/A   Scattered Clouds
3:53 PM 77.0 °F - 62.6 °F 61% 30.09 in 10.0 mi West 6.9 mph - N/A   Scattered Clouds
4:53 PM 75.0 °F - 63.0 °F 66% 30.10 in 10.0 mi SW 3.5 mph - N/A   Overcast
5:53 PM 73.9 °F - 64.0 °F 71% 30.10 in 10.0 mi SW 5.8 mph - N/A   Partly Cloudy
6:53 PM 72.0 °F - 64.0 °F 76% 30.12 in 10.0 mi Calm Calm - N/A   Mostly Cloudy
7:53 PM 73.0 °F - 64.0 °F 73% 30.14 in 10.0 mi Calm Calm - N/A   Scattered Clouds
8:53 PM 71.1 °F - 64.9 °F 81% 30.15 in 10.0 mi Calm Calm - N/A   Overcast
9:53 PM 70.0 °F - 64.0 °F 81% 30.16 in 10.0 mi NE 5.8 mph - N/A   Mostly Cloudy
10:53 PM 69.8 °F - 62.6 °F 78% 30.17 in 10.0 mi ENE 3.5 mph - N/A   Partly Cloudy
11:53 PM 66.9 °F - 63.0 °F 87% 30.16 in 10.0 mi NNE 3.5 mph - N/A   Clear